Regional Weather Roundup
Issued by NWS

Home | Current Version | Previous Version | Text Only | Print | Product List | Glossary Off
Versions: 1 2 3 4 5 6 7 8 9 10 11 12 13 14 15 16 17 18 19 20 21 22 23 24 25 26 27 28 29 30 31 32 33 34 35 36 37 38 39 40 41 42 43 44 45 46 47 48 49 50

000
ASUS43 KMPX 191210
RWRMN
WEATHER ROUNDUP FOR MINNESOTA
NATIONAL WEATHER SERVICE TWIN CITIES/CHANHASSEN MN
600 AM CST FRI DEC 19 2014


NOTE: "FAIR" INDICATES FEW OR NO CLOUDS BELOW 12,000 FEET WITH NO
SIGNIFICANT WEATHER AND/OR OBSTRUCTIONS TO VISIBILITY. N/A MEANS
CURRENT SKY AND/OR WEATHER CONDITIONS ARE NOT AVAILABLE.

MNZ060>063-068>070-191300-
   Twin Cities Metro

CITY           SKY/WX    TMP DP  RH WIND       PRES   REMARKS
TWIN CITIES    CLOUDY    22  17  81 SE6       30.25S WCI  14
6HR MIN TEMP:  20; 6HR MAX TEMP:  22; 6HR PCP: TRACE;

ST PAUL        CLOUDY    22  18  85 SE9       30.27S WCI  12
CRYSTAL        CLOUDY    23  17  78 SE6       30.24S WCI  16
BLAINE         FLURRIES  23  19  86 SE6       30.24S WCI  16
LAKEVILLE      CLOUDY    21  19  93 SE3       30.24S
EDEN PRAIRIE   CLOUDY    22  17  81 SE6       30.23S WCI  14
6HR MIN TEMP:  21; 6HR MAX TEMP:  22; 6HR PCP: TRACE;

SOUTH ST PAUL  CLOUDY    23  18  81 CALM      30.26S
LAKE ELMO      CLOUDY    23  19  86 S3        30.26S
$$
MNZ001>005-007-008-013>017-022>024-027-028-191300-
   Northwest Minnesota

CITY           SKY/WX    TMP DP  RH WIND       PRES   REMARKS
BEMIDJI        FLURRIES  19  16  89 S7        30.13S WCI   9
HALLOCK        CLOUDY    23  19  86 S14       30.08S WCI  11
ROSEAU         CLOUDY    21  18  86 S10       30.11S WCI  10
WARROAD        CLOUDY    19  16  86 SE10      30.12S WCI   8
THIEF RVR FALL CLOUDY    21  18  86 S9        30.10S WCI  11
CROOKSTON      CLOUDY    23  21  93 S14       30.10F FOG     WCI  11
FOSSTON        LGT SNOW  19  18  93 SE8       30.11S WCI   9
DETROIT LAKES  CLOUDY    23  21  93 SE9       30.11F FOG     WCI  13
MOORHEAD       CLOUDY    25  25 100 S13       30.12S FOG     WCI  13
PARK RAPIDS    CLOUDY    19  16  88 SE10      30.12F WCI   7
MAHNOMEN       CLOUDY    21  18  89 SE6       30.10F WCI  13
$$
MNZ006-009>011-018-025>026-191300-
   North Central Minnesota

CITY           SKY/WX    TMP DP  RH WIND       PRES   REMARKS
BAUDETTE       CLOUDY    20  16  84 S5        30.13S WCI  13
FLAG ISLAND    CLOUDY    19  18  93 S15       30.11F WCI   5
INTL FALLS     CLOUDY    21  17  84 VRB3      30.17S
6HR MIN TEMP:  21; 6HR MAX TEMP:  22; 6HR PCP:  0.01;

WASKISH        CLOUDY    19  18  93 CALM      30.14S
BIG FORK       CLOUDY    19  18  93 SE5       30.16F WCI  13
LONGVILLE      CLOUDY    19  16  86 SE6       30.16F WCI  11
GRAND RAPIDS   CLOUDY    18  16  93 SE7       30.16F WCI   8
CRANE LAKE     CLOUDY    21  18  86 CALM      30.21S
ORR            CLOUDY    19  18  93 S8        30.16S WCI   9
COOK           CLOUDY    19  18  93 SE7       30.19S WCI  10
WALKER         FLURRIES  18  15  87 SE3       30.14F
$$
MNZ012-019>021-037-191300-
   Northeast Minnesota

CITY           SKY/WX    TMP DP  RH WIND       PRES   REMARKS
DULUTH         CLOUDY    20  17  88 SW7       30.19F WCI  11
6HR MIN TEMP:  20; 6HR MAX TEMP:  22; 6HR PCP: TRACE;

ELY            CLOUDY    21  18  86 S3        30.19S
HIBBING        CLOUDY    20  15  81 VRB5      30.19S WCI  13
EVELETH        CLOUDY    21  19  93 S7        30.20S WCI  13
DULUTH HARBOR  CLOUDY    25  19  80 CALM      30.26F
TWO HARBORS    CLOUDY    25  19  80 W5        30.21S WCI  19
SILVER BAY     CLOUDY    25  21  86 CALM      30.21S
GRAND MARAIS     N/A     30  21  69 S9        30.26S WCI  22
G MARAIS ARPRT CLOUDY    19  16  86 CALM      30.19S
$$
MNZ029>031-032-039>041-046>048-054>057-064-191300-
   West Central Minnesota

CITY           SKY/WX    TMP DP  RH WIND       PRES   REMARKS
FERGUS FALLS   CLOUDY    23  21  93 SE10      30.15F FOG     WCI  12
WHEATON        CLOUDY    23  21  93 SE12      30.14S WCI  12
MORRIS         MOCLDY    25  23  93 SE12      30.13S FOG     WCI  14
ALEXANDRIA     CLOUDY    22  20  92 SE12      30.14F FOG     WCI  10
ELBOW LAKE     CLOUDY    22  22  98 SE12      30.13S FOG     WCI  11
WADENA         CLOUDY    19  18  93 NW12      30.13S FOG     WCI   7
GLENWOOD       CLOUDY    21  21 100 SE9       30.15S FOG     WCI  11
APPLETON       MOCLDY    27  23  86 SE3       30.15S
BENSON         CLOUDY    25  21  86 S8        30.16S WCI  16
ORTONVILLE     CLOUDY    25  21  86 SE6       30.13R FOG     WCI  18
MADISON        CLEAR     30  28  93 SE6       30.14S FOG     WCI  24
WILLMAR        CLOUDY    25  23  93 SE9       30.19S FOG     WCI  15
$$
MNZ033>034-036-042>043-049>051-058-059-191300-
   Central Minnesota

CITY           SKY/WX    TMP DP  RH WIND       PRES   REMARKS
ST CLOUD       CLOUDY    22  17  81 SE7       30.21S WCI  13
6HR MIN TEMP:  22; 6HR MAX TEMP:  22; 6HR PCP:  0.02;

SAUK CENTRE    CLOUDY    20  19  96 SE7       30.17S FOG     WCI  11
PAYNESVILLE    CLOUDY    19  19 100 E9        30.19S FOG     WCI   8
AITKIN         FLURRIES  21  18  86 SE7       30.17F WCI  13
PINE RIVER     CLOUDY    19  16  86 SE7       30.19F WCI  10
BRAINERD       CLOUDY    19  16  88 S5        30.18F FOG     WCI  12
STAPLES        CLOUDY    18  18 100 SE6       30.16S WCI   9
LONG PRAIRIE   CLOUDY    19  19 100 SE7       30.17S FOG     WCI  10
LITTLE FALLS   CLOUDY    21  18  86 SE6       30.20R WCI  14
LITCHFIELD     CLOUDY    23  23 100 SE6       30.20S FOG     WCI  16
BUFFALO        CLOUDY    21  18  86 SE6       30.23F WCI  14
MAPLE LAKE     CLOUDY    22  20  91 SE6       30.22S WCI  15
$$
MNZ037-044-045-052-053-191300-
   East Central Minnesota

CITY           SKY/WX    TMP DP  RH WIND       PRES   REMARKS
PRINCETON      LGT SNOW  21  18  86 CALM      30.22S
MORA           CLOUDY    19  16  86 S3        30.24S
CAMBRIDGE      FLURRIES  23  16  74 SE3       30.22S
RUSH CITY      CLOUDY    21  18  87 S3        30.25R
MOOSE LAKE     CLOUDY    21  19  93 CALM      30.20S
HINCKLEY       CLOUDY    23  19  86 CALM      30.23S
CLOQUET        CLOUDY    19  18  93 CALM      30.20F
MCGREGOR       CLOUDY    21  19  93 SE5       30.20S WCI  15
$$
MNZ071>073-080-081-089-090-097-098-191300-
   Southwest Minnesota

CITY           SKY/WX    TMP DP  RH WIND       PRES   REMARKS
MONTEVIDEO     CLOUDY    25  25 100 S7        30.17S WCI  17
GRANITE FALLS  CLOUDY    26  24  93 SE9       30.18F WCI  16
CANBY          CLOUDY    28  27  95 S6        30.14F FOG     WCI  21
MARSHALL       CLOUDY    27  25  93 S7        30.15F WCI  19
REDWOOD FALLS  CLOUDY    26  24  92 SE8       30.19S WCI  18
OLIVIA         CLOUDY    27  25  93 S8        30.18S FOG     WCI  18
PIPESTONE      CLOUDY    27  27 100 SW5       30.13S FOG     WCI  21
WINDOM         CLOUDY    27  27 100 CALM      30.18R FOG
WORTHINGTON    CLOUDY    27  27 100 S8        30.17S WCI  18
JACKSON        CLOUDY    28  27  93 S8        30.19S FOG     WCI  20
TRACY          CLOUDY    29  28  94 S5        30.16S FOG     WCI  24
SLAYTON        CLOUDY    27  27 100 CALM      30.16R FOG
$$
MNZ065>067-074>077-082>085-091>093-191300-
   South Central Minnesota

CITY           SKY/WX    TMP DP  RH WIND       PRES   REMARKS
MANKATO        CLOUDY    25  19  80 S7        30.22S WCI  17
NEW ULM        PTCLDY    25  25 100 S9        30.21S FOG     WCI  15
ST JAMES       PTCLDY    27  25  93 SE7       30.22S WCI  19
FAIRMONT       CLOUDY    27  21  80 S7        30.21R WCI  19
GLENCOE        CLOUDY    24  22  94 SE5       30.22S FOG     WCI  18
FARIBAULT      CLOUDY    25  21  86 SE5       30.24S WCI  19
OWATONNA       CLOUDY    25  19  80 SE7       30.23S WCI  17
WASECA         CLOUDY    25  21  86 SE5       30.24S WCI  19
ALBERT LEA     CLOUDY    25  21  86 CALM      30.23R
$$
MNZ078>079-086>088-094>096-191300-
   Southeast Minnesota

CITY           SKY/WX    TMP DP  RH WIND       PRES   REMARKS
ROCHESTER      CLOUDY    22  18  85 SE6       30.24S WCI  14
6HR MIN TEMP:  20; 6HR MAX TEMP:  22;

RED WING       CLOUDY    23  18  80 SE5       30.26F WCI  17
STANTON        CLOUDY    24  19  82 SE3       30.23S
DODGE CENTER   CLOUDY    23  21  93 S7        30.23R WCI  15
WINONA         CLOUDY    25  19  80 SE3       30.29S
AUSTIN         CLOUDY    23  19  86 S3        30.24S
PRESTON        CLOUDY    22  18  85 S5        30.25S WCI  16
$$
ABBREVIATIONS USED IN REMARKS
   TC - TEMPERATURES IN CELSIUS
  WCI - WIND CHILL INDEX
   HX - HEAT INDEX
  VSB - VISIBILITY
$$



USA.gov is the U.S. government's official web portal to all federal, state and local government web resources and services.